Location: ??????
(38.0677°N, 22.9870°E)
Time: 16:37:56
(UTC+00:00)

Thor Agena Rocket - Pass Details

Date: 23 May 2024
Orbit: 758 x 804 km, 99.1° (Epoch: 24 June)

Event Time Altitude Azimuth Distance (km) Brightness Sun altitude
Rises 01:59:15 0° 17° (NNE) 3,289 7.8 -12.7°
Reaches altitude 10° 02:01:36 10° 20° (NNE) 2,363 7.0 -12.3°
Maximum altitude 02:06:47 66° 102° (ESE) 869 3.9 -11.5°
Drops below altitude 10° 02:11:59 10° 185° (S) 2,369 5.7 -10.7°
Enters shadow 02:13:49 - 187° (S) 3,092 6.2 -10.4°
